Hlavní strana
METAR-TAF:

METAR-TAF

Letiště :

Person County Airport

Roxboro, Severní Karolína, Spojené státy americké

zeměpisná šířka: 36-17-06N, zeměpisná délka: 078-59-03W, výška: 186 m

Aktuální stav počasí

Zpráva byla vytvořena před 21 minutami, v 09:15 UTC
Bezvětří
Teplota 21°C
Vlhkost vzduchu 100%
Tlak 1019 hPa
Viditelnost: 16.1 km
Zataženo ve výšce 400 ft

METAR: KTDF 070915Z AUTO 00000KT 10SM OVC004 21/21 A3009 RMK AO2

Čas: 05:36 (09:36 UTC)


TAF: chybějící

Stav a předpovědi počasí z více než 4 000 letišť (zprávy METAR a TAF).

Červené a žluté tečky na mapě představují dostupné meteorologické stanice.

Když kurzor umístíte na tečku, zobrazí se název stanice.

Pak kliknutím zobrazíte stav a předpověď počasí.

Chcete-li změnit mapu, kliknutím na zelené tlačítko se znaménkem +mapu přiblížíte, kliknutím na zelené tlačítko se znaménkem – mapu oddálíte a kliknutím na zelené šipky přejdete na sousední mapy.


METAR-TAF: